Location: Bílinka
(49.3579°N, 14.3767°E)
Time: 22:56:07
(UTC+00:00)

PSLV R/B - Pass Details

Date: 28 April 2024
Orbit: 467 x 522 km, 97.7° (Epoch: 18 May)

Event Time Altitude Azimuth Distance (km) Brightness Sun altitude
Rises 18:44:05 0° 162° (SSE) 2,633 6.8 -5.0°
Reaches altitude 10° 18:46:10 10° 161° (SSE) 1,757 6.0 -5.3°
Maximum altitude 18:49:58 79° 74° (ENE) 543 3.7 -5.8°
Drops below altitude 10° 18:53:49 10° 349° (N) 1,786 7.1 -6.4°
Sets 18:55:56 0° 348° (NNW) 2,681 8.1 -6.7°
